Regional Weather Roundup
Issued by NWS

Home | Current Version | Previous Version | Graphics & Text | Print | Product List | Glossary On
Versions: 1 2 3 4 5 6 7 8 9 10 11 12 13 14 15 16 17 18 19 20 21 22 23 24 25 26 27 28 29 30 31 32 33 34 35 36 37 38 39 40 41 42 43 44 45 46 47 48 49 50
818
ASUS43 KLSX 072107
RWRMO

WEATHER SUMMARY FOR MISSOURI
NATIONAL WEATHER SERVICE SPRINGFIELD MO
300 PM CST WED DEC 07 2016

NOTE: "FAIR" INDICATES FEW OR NO CLOUDS BELOW 12,000 FEET WITH NO
       SIGNIFICANT WEATHER AND/OR OBSTRUCTIONS TO VISIBILITY.
       CURRENT SKY AND/OR WEATHER CONDITIONS ARE NOT AVAILABLE FOR
       CHILLICOTHE AND FARMINGTON.

MOZ001>031-035>038-043-044-053-054-072200-
...NORTHERN AND WESTERN MISSOURI...

CITY           SKY/WX    TMP DP  RH WIND       PRES   REMARKS
KANSAS CTY INT CLOUDY    27  13  55 NW13      30.32R WCI  16
KANSAS C DTWN  CLOUDY    27  20  75 NW12      30.33R WCI  17
LEE`S SUMMIT   LGT SNOW  27  22  81 MISG      30.32R
ST JOSEPH      CLOUDY    27  13  55 NW14      30.34R WCI  16
CHILLICOTHE      N/A     29  13  51 NW9       30.30R WCI  20
KIRKSVILLE     SUNNY     29  12  49 W10       30.24R WCI  20

$$
MOZ066>068-077>081-088>096-101>105-072200-
...SOUTHWEST MISSOURI...

CITY           SKY/WX    TMP DP  RH WIND       PRES   REMARKS
SPRINGFIELD    CLOUDY    35  14  42 N12       30.21R WCI  27
JOPLIN         CLOUDY    35  20  54 N10       30.25R WCI  27
BRANSON        CLOUDY    34  19  55 CALM      30.20R

$$
MOZ032>034-039>042-045>050-055>058-069>072-072200-
...CENTRAL MISSOURI...

CITY           SKY/WX    TMP DP  RH WIND       PRES   REMARKS
COLUMBIA       CLOUDY    33  19  56 NW13      30.25R WCI  24
JEFFERSON CITY CLOUDY    33  20  58 NW8       30.27R WCI  26
ROLLA          CLOUDY    34  18  52 NW8       30.21R WCI  27
SEDALIA        LGT SNOW  30  25  81 NW9       30.30R WCI  22
WHITEMAN AFB   LGT SNOW  28  28 100 NW8       30.28S FOG     WCI  20
WARRENSBURG    LGT SNOW  28  23  80 NW6       30.31R WCI  22
OSAGE BEACH    CLOUDY    34  17  50 N7        30.26R WCI  28

$$
MOZ051-052-059>065-072200-
...EAST CENTRAL MISSOURI...

CITY           SKY/WX    TMP DP  RH WIND       PRES   REMARKS
ST LOUIS INTL  CLOUDY    37  15  40 NW13      30.22F WCI  29
SPIRIT OF STL  CLOUDY    36  19  50 W7        30.23S
ST CHARLES     CLOUDY    36  19  50 W8        30.23F WCI  30

$$
MOZ072>076-082>087-097>100-106>115-072200-
...SOUTH CENTRAL AND SOUTHEAST MISSOURI...

CITY           SKY/WX    TMP DP  RH WIND       PRES   REMARKS
CAPE GIRARDEAU CLOUDY    41  22  46 NW7       30.19S
FARMINGTON     CLOUDY    37  18  46 NW6       30.20S
POPLAR BLUFF   CLOUDY    42  19  39 N6        30.19S
WEST PLAINS    CLOUDY    38  14  37 NE7       30.20R

$$



USA.gov is the U.S. government's official web portal to all federal, state and local government web resources and services.